GW2905 Weather Reports


Display with metric or nautical units.
time (UTC)temp
F
wind
direction
speed
MPH
gust
MPH
rain 1hr
in
rain 24hr
in
rain mn
in
humidity
%
barometer
mb
20260906091610 57 0 0.0 3.0 0.00 0.00 0.00 84 1014.5
20260906084605 58 167 0.0 3.0 0.00 0.00 0.00 82 1014.3
20260906083101 58 44 0.0 2.0 0.00 0.00 0.00 81 1014.5
20260906081603 58 5 0.0 3.0 0.00 0.00 0.00 80 1014.3
20260906080109 58 0 0.0 1.0 0.00 0.00 0.00 80 1014.5
20260906074604 58 0 0.0 1.0 0.00 0.00 0.00 80 1014.5
20260906073106 59 0 0.0 2.0 0.00 0.00 0.00 80 1014.7
20260906071604 59 0 0.0 3.0 0.00 0.00 0.00 79 1014.7
20260906070058 59 0 0.0 2.0 0.00 0.00 0.00 80 1014.7
20260906064559 59 0 0.0 9.0 0.00 0.00 0.00 78 1014.7
20260906063102 59 22 0.0 3.0 0.00 0.00 0.00 78 1014.6
20260906061601 59 38 0.0 11.0 0.00 0.00 0.00 77 1014.5
20260906060104 60 0 1.0 8.0 0.00 0.00 0.00 77 1014.7
20260906054602 60 325 0.0 5.0 0.00 0.00 0.00 76 1015.0
20260906053058 60 43 0.0 3.0 0.00 0.00 0.00 75 1015.0
20260906051609 60 36 0.0 3.0 0.00 0.00 0.00 75 1015.0
20260906044600 60 0 0.0 2.0 0.00 0.00 0.00 74 1015.1
20260906043056 60 10 0.0 2.0 0.00 0.00 0.00 73 1015.3
20260906041602 59 0 0.0 3.0 0.00 0.00 0.00 72 1015.4
20260906040054 59 0 0.0 2.0 0.00 0.00 0.00 72 1015.3
20260906034559 59 0 0.0 2.0 0.00 0.00 0.00 72 1015.2
20260906033102 60 0 0.0 1.0 0.00 0.00 0.00 72 1015.0
20260906031600 60 0 0.0 2.0 0.00 0.00 0.00 72 1014.8
20260906030116 61 0 0.0 1.0 0.00 0.00 0.00 72 1014.7
20260906024624 61 0 0.0 1.0 0.00 0.00 0.00 71 1014.8
20260906023059 62 0 0.0 1.0 0.00 0.00 0.00 70 1014.8
20260906021600 62 0 0.0 2.0 0.00 0.00 0.00 69 1014.8
20260906020103 63 34 0.0 0.0 0.00 0.00 0.00 67 1015.0
20260906014608 64 0 0.0 2.0 0.00 0.00 0.00 64 1015.1
20260906013058 63 0 0.0 0.0 0.00 0.00 0.00 66 1015.1
20260906011556 63 0 0.0 0.0 0.00 0.00 0.00 69 1015.0
20260906010119 64 0 0.0 0.0 0.00 0.00 0.00 68 1015.0
20260906004607 65 0 0.0 1.0 0.00 0.00 0.00 64 1015.0
20260906003118 66 294 0.0 2.0 0.00 0.00 0.00 60 1015.0
20260906001559 66 323 0.0 2.0 0.00 0.00 0.00 63 1015.0
20260906000106 67 181 0.0 3.0 0.00 0.00 0.00 60 1015.0
20260905234608 68 110 0.0 3.0 0.00 0.00 0.00 62 1014.8
20260905233101 68 119 0.0 3.0 0.00 0.00 0.00 60 1014.9
20260905231601 67 0 0.0 3.0 0.00 0.00 0.00 60 1015.1
20260905230100 66 0 1.0 3.0 0.00 0.00 0.00 60 1015.2
20260905224602 66 151 1.0 3.0 0.00 0.00 0.00 64 1015.4
20260905223059 65 61 0.0 2.0 0.00 0.00 0.00 66 1015.5
20260905221602 62 0 0.0 0.0 0.00 0.00 0.00 76 1015.8
20260905214557 63 0 0.0 1.0 0.00 0.00 0.00 71 1015.8
20260905213105 64 0 0.0 2.0 0.00 0.00 0.00 69 1015.9
20260905211557 65 161 0.0 3.0 0.00 0.00 0.00 66 1016.0
20260905210059 64 0 0.0 2.0 0.00 0.00 0.00 63 1016.0
20260905204611 63 169 0.0 3.0 0.00 0.00 0.00 69 1016.1
20260905203101 64 341 0.0 5.0 0.00 0.00 0.00 67 1016.1
20260905201558 65 298 1.0 3.0 0.00 0.00 0.00 64 1016.1
20260905200107 64 142 0.0 3.0 0.00 0.00 0.00 70 1016.2
20260905194558 64 0 0.0 5.0 0.00 0.00 0.00 65 1016.2
20260905193110 66 0 1.0 5.0 0.00 0.00 0.00 67 1016.3
20260905191606 66 203 0.0 3.0 0.00 0.00 0.00 70 1016.3
20260905184612 61 0 1.0 4.0 0.00 0.00 0.00 75 1016.8
20260905183107 60 0 0.0 3.0 0.00 0.00 0.00 76 1016.8
20260905181604 60 0 0.0 2.0 0.00 0.00 0.00 76 1016.8
20260905174559 62 132 1.0 3.0 0.00 0.00 0.00 75 1016.9
20260905173103 61 0 0.0 2.0 0.00 0.00 0.00 78 1016.8
20260905171604 59 133 1.0 3.0 0.00 0.00 0.00 79 1016.8
20260905170117 58 164 0.0 2.0 0.00 0.00 0.00 85 1016.8
20260905164559 57 0 0.0 3.0 0.00 0.00 0.00 86 1016.8
20260905163057 56 0 0.0 3.0 0.00 0.00 0.00 90 1016.7
20260905161558 55 16 1.0 3.0 0.00 0.00 0.00 92 1016.8
20260905160101 55 0 0.0 2.0 0.00 0.00 0.00 94 1016.8
20260905154602 54 0 0.0 2.0 0.00 0.00 0.00 95 1016.9
20260905153056 53 248 0.0 1.0 0.00 0.00 0.00 95 1016.8
20260905151602 52 0 0.0 1.0 0.00 0.00 0.00 95 1016.8
20260905144559 52 0 0.0 1.0 0.00 0.00 0.00 94 1016.7
20260905143108 53 278 0.0 2.0 0.00 0.00 0.00 94 1016.6
20260905141559 53 0 0.0 1.0 0.00 0.00 0.00 93 1016.6
20260905140059 53 0 0.0 0.0 0.00 0.00 0.00 93 1016.4
20260905134600 53 0 0.0 0.0 0.00 0.00 0.00 93 1016.4
20260905133057 53 0 0.0 0.0 0.00 0.00 0.00 93 1016.4
20260905131559 54 0 0.0 1.0 0.00 0.00 0.00 92 1016.4
20260905124559 54 0 0.0 0.0 0.00 0.05 0.00 90 1016.2
20260905123104 54 0 0.0 1.0 0.00 0.05 0.00 89 1016.0
20260905121602 54 0 0.0 1.0 0.00 0.05 0.00 90 1016.0
20260905120106 54 0 0.0 1.0 0.00 0.05 0.00 91 1016.0
20260905114558 53 350 0.0 1.0 0.00 0.06 0.00 93 1016.0
20260905113059 53 0 0.0 0.0 0.00 0.06 0.00 93 1015.9
20260905111637 53 0 0.0 1.0 0.00 0.06 0.00 94 1015.9
20260905110059 53 0 0.0 0.0 0.00 0.06 0.00 94 1016.0
20260905104556 53 0 0.0 0.0 0.00 0.06 0.00 94 1016.0
20260905103100 53 0 0.0 0.0 0.00 0.06 0.00 94 1016.1
20260905101603 54 0 0.0 0.0 0.00 0.06 0.00 93 1016.1
20260905100222 54 0 0.0 0.0 0.00 0.06 0.00 93 1016.1
20260905094604 54 0 0.0 0.0 0.00 0.06 0.00 93 1016.1
20260905093103 54 0 0.0 0.0 0.00 0.06 0.00 93 1016.2